Tamkin Huseynov

Chefscout - Qarabag
22 Feb 2028
Dienstag
Verarbeitung

Persönlichkeit

Anpassungsfähigkeit (6) Ehrgeiz (15) Kontroverse (7) Loyalität (17) Druck (9) Professionalität (6) Fairness (9) Temperament (14)

Profil

Trainerstil Demokratisch
Lizenz Kontinentale C
Entschlossenheit 9
Menschenführung 5
Motivation 11
Disziplin 9
Arbeitszufriedenheit
100%
Ermüdung
0%
Rolle Chefscout
Gehalt 65.8K p/W
Vertrag 14.03.2030

Leistung

Verhalten Gut
Trainingseffektivität
26%
Spielerentwicklung
55%
Verletzungsprävention
25%
Taktische Umsetzung
30%

Letzte Ereignisse

Nahm an einer Scouting-Besprechung teil jetzt
Empfahl ein Transferziel jetzt
Empfahl ein Transferziel jetzt
Empfahl ein Transferziel jetzt
Empfahl ein Transferziel jetzt
Empfahl ein Transferziel jetzt
Spieler begutachtet 7T her
Spieler begutachtet 7T her

Aktuell beobachtet

338
Spieler Verein Status Fähigkeit Vertrauen Beobachtet Zuletzt beobachtet Letzte Stimme
Luciano Gondou CSKA Moscow Aktiv 144 / 127 40% 5 20.02.2028 -
Jesús Ricardo Angulo Toluca Aktiv 143 / 146 40% 1 20.02.2028 -
Lewis Morgan SuperSport United Aktiv 129 / 140 40% 1 20.02.2028 -
Abu Kamara Portsmouth Aktiv 130 / 124 40% 1 19.02.2028 -
Toma Bašić Venezia Aktiv 144 / 135 40% 1 19.02.2028 -
Joseph Paintsil LA Galaxy Aktiv 128 / 115 40% 1 19.02.2028 -
Alex Palmer Norwich City Aktiv 127 / 135 40% 1 19.02.2028 -
Joe Whitworth Stockport County Aktiv 123 / 118 40% 1 19.02.2028 -
Alexandr Maximenko Rubin Aktiv 120 / 118 40% 1 19.02.2028 -
Carlos Fernández Oviedo Aktiv 130 / 136 40% 26 17.02.2028 -
Maurice Malone Minnesota United FC Aktiv 117 / 120 40% 1 17.02.2028 -
Miroslav Bogosavac Akhmat Grozny Aktiv 112 / 112 40% 1 17.02.2028 -
Robby McCrorie NK Varazdin Aktiv 129 / 128 40% 1 17.02.2028 -
Rémy Descamps RC Lens Aktiv 126 / 122 40% 1 17.02.2028 -
Roger Brugué Levante Aktiv 135 / 135 40% 17 14.02.2028 -
Pavel Bucha FC Cincinnati Aktiv 130 / 120 40% 3 14.02.2028 -
Josh Murphy Portsmouth Aktiv 124 / 126 40% 1 14.02.2028 -
Daniel Podence Al-Shabab Aktiv 140 / 129 40% 2 12.02.2028 -
Mohau Nkota Al-Ettifaq Aktiv 127 / 125 40% 1 12.02.2028 -
Makoto Mitsuta Gamba Osaka Aktiv 134 / 116 40% 1 11.02.2028 -
Gaëtan Coucke Sampdoria Aktiv 128 / 129 40% 3 10.02.2028 -
Simone Mazzocchi Cosenza Aktiv 124 / 112 40% 1 10.02.2028 -
Diego Rosa APOEL Aktiv 130 / 126 40% 1 10.02.2028 -
Makan Aïko Tondela Aktiv 124 / 128 40% 1 10.02.2028 -
Matt Freese New York City Aktiv 129 / 149 40% 1 10.02.2028 -
Cesare Galeotti Trapani Aktiv 123 / 110 40% 1 10.02.2028 -
Will Dennis Milton Keynes Dons Aktiv 116 / 122 40% 1 09.02.2028 -
Simone Ghidotti Parma Aktiv 130 / 131 40% 1 09.02.2028 -
Timur Magomedov Dinamo Makhachkala Aktiv 118 / 121 40% 1 09.02.2028 -
Hany Mukhtar Spezia Aktiv 149 / 137 40% 2 07.02.2028 -
Brenner Santa Clara Aktiv 117 / 121 40% 1 07.02.2028 -
Sam Szmodics Ipswich Town Aktiv 132 / 132 40% 1 07.02.2028 -
David Ayala Inter Miami CF Aktiv 126 / 127 40% 3 06.02.2028 -
Roman Vantukh Rukh Aktiv 116 / 108 40% 1 06.02.2028 -
Dmitry Pestryakov Dinamo Moscow Aktiv 107 / 115 40% 4 05.02.2028 -
Nikita Kakkoev Nizhniy Novgorod Aktiv 114 / 117 40% 1 05.02.2028 -
Rasmus Wikström IF Elfsborg Aktiv 120 / 131 40% 1 05.02.2028 -
Josh Neufville Najran Aktiv 111 / 119 40% 1 04.02.2028 -
Jordan Williams Harrogate Town Aktiv 124 / 117 40% 1 03.02.2028 -
Patrick Yazbek Nashville SC Aktiv 135 / 129 40% 1 03.02.2028 -
Nacho Martín Gijón Aktiv 120 / 131 40% 1 03.02.2028 -
David Sotelo Persib Aktiv 118 / 101 40% 3 01.02.2028 -
Enzo Silcan Almagro Aktiv 109 / 104 40% 4 01.02.2028 -
Arsen Adamov Akhmat Grozny Aktiv 117 / 132 40% 1 01.02.2028 -
Sasha Marcich Lanús Aktiv 119 / 120 40% 3 31.01.2028 -
Matías Fernández Independiente Rivadavia Aktiv 125 / 127 40% 1 31.01.2028 -
Ulises Sánchez Gimnasia y Esgrima Aktiv 123 / 136 40% 1 31.01.2028 -
Facundo Ardiles Estudiantes Aktiv 115 / 101 40% 3 30.01.2028 -
Braian Aranda Agropecuario Argentino Aktiv 104 / 125 40% 2 30.01.2028 -
Thomas Ortega Quilmes Aktiv 119 / 121 40% 2 30.01.2028 -
Iván Tapia Barracas Central Aktiv 132 / 111 40% 1 29.01.2028 -
Alexis Steimbach Gimnasia La Plata Aktiv 126 / 129 40% 1 29.01.2028 -
Fernando Martínez Central Córdoba SdE Aktiv 114 / 132 40% 2 28.01.2028 -
Ezequiel Cannavo Defensa y Justicia Aktiv 122 / 138 40% 1 28.01.2028 -
Facundo Mater Barracas Central Aktiv 117 / 117 40% 1 27.01.2028 -
Tomás Silva Platense Aktiv 128 / 135 40% 1 27.01.2028 -
Juan Yangali San Telmo Aktiv 114 / 116 40% 1 26.01.2028 -
Enzo Martínez Gimnasia La Plata Aktiv 119 / 133 40% 1 26.01.2028 -
Franco Hanashiro Colegiales Aktiv 107 / 107 40% 1 26.01.2028 -
Francisco Álvarez Argentinos Juniors Aktiv 138 / 116 40% 2 25.01.2028 -
Georgie Gent Barnsley Aktiv 112 / 121 40% 1 25.01.2028 -
Erik de los Santos Racing Aktiv 107 / 119 40% 1 23.01.2028 -
Enzo Roldán Unión de Santa Fe Aktiv 110 / 110 40% 1 23.01.2028 -
Agustín Benítez Defensores Aktiv 118 / 113 40% 1 23.01.2028 -
Santiago Núñez Estudiantes Aktiv 134 / 126 40% 1 21.01.2028 -
Gonzalo Abrego Godoy Cruz Aktiv 123 / 125 40% 2 20.01.2028 -
Matías Machado Racing Aktiv 123 / 116 40% 1 20.01.2028 -
Germán Berterame Vélez Aktiv 132 / 122 40% 39 18.01.2028 -
M'Bala Nzola Cagliari Aktiv 128 / 129 40% 12 18.01.2028 -
Leandro Lozano Boca Juniors Aktiv 118 / 134 40% 1 14.01.2028 -
Fernando Bersano Madryn Aktiv 120 / 118 40% 1 14.01.2028 -
Teruki Hara Nagoya Grampus Aktiv 113 / 133 40% 2 13.01.2028 -
Martín García Atlanta Aktiv 108 / 117 40% 1 13.01.2028 -
César Ibáñez Huracán Aktiv 135 / 115 40% 1 11.01.2028 -
Daniel Herrera San Lorenzo Aktiv 123 / 136 40% 1 11.01.2028 -
Kamran Ramazanov Inter Verloren 124 / 118 69% 1 03.01.2028 -
Lautaro Amadé Defensa y Justicia Verloren 122 / 126 40% 6 01.01.2028 -
Rüstəm Əhmədzadə Sumgayit Bericht bereit 119 / 109 69% 1 01.01.2028 -
Egil Selvik Watford Aktiv 133 / 128 40% 1 01.01.2028 -
Max O'Leary West Bromwich Albion Aktiv 131 / 130 40% 1 01.01.2028 -
Jhonatan Candia Barracas Central Aktiv 115 / 115 40% 2 30.12.2027 -
Duvan Rangel La Equidad Aktiv 138 / 133 40% 2 30.12.2027 -
Nicolás Fernández Sassuolo Aktiv 132 / 123 40% 20 30.12.2027 -
Mattia Bortolussi Padova Aktiv 133 / 119 40% 14 30.12.2027 -
Tomás O'Connor Gimnasia y Esgrima Aktiv 125 / 128 40% 1 30.12.2027 -
Lautaro Díaz Cruzeiro Aktiv 130 / 130 40% 3 28.12.2027 -
Jerónimo Pourtau Talleres Aktiv 117 / 121 40% 2 19.12.2027 -
Balázs Tóth Blackburn Rovers Aktiv 137 / 131 40% 1 19.12.2027 -
Franco Malagueño Colegiales Aktiv 101 / 123 40% 1 16.12.2027 -
Matías Borgogno San Martín SJ Verloren 134 / 135 40% 1 14.12.2027 -
Gaëtan Poussin Red Star Aktiv 128 / 136 40% 1 14.12.2027 -
Juan Brunetta FC Copenhagen Aktiv 136 / 130 40% 13 13.12.2027 -
Evgeny Latyshonok Nizhniy Novgorod Aktiv 140 / 124 40% 2 12.12.2027 -
Iván Arboleda Sarmiento Aktiv 133 / 110 40% 2 12.12.2027 -
Lucas Acosta Aldosivi Aktiv 113 / 110 40% 5 11.12.2027 -
Abduvohid Ne'matov Nasaf Aktiv 137 / 132 40% 4 07.12.2027 -
Gastón Togni Defensa y Justicia Aktiv 123 / 139 40% 2 07.12.2027 -
Vladimir Nazarov Pakhtakor Aktiv 127 / 130 40% 1 07.12.2027 -
Denzel Jubitana Neftchi Aktiv 129 / 110 40% 1 07.12.2027 -
Emanuel Coronel Rosario Central Aktiv 118 / 128 40% 1 06.12.2027 -
César Pérez Defensa y Justicia Aktiv 118 / 117 40% 1 06.12.2027 -
Michele Cerofolini Bari Aktiv 128 / 137 40% 1 30.11.2027 -
Tomás Marchiori Vélez Aktiv 138 / 131 40% 3 28.11.2027 -
Didier Mercier Chamois Niortais Aktiv 121 / 134 40% 1 28.11.2027 -
Edwuin Cetré Estudiantes Aktiv 121 / 123 40% 1 23.11.2027 -
Asier Villalibre Valencia Aktiv 123 / 126 40% 1 21.11.2027 -
Sol Brynn Krasnodar Aktiv 122 / 138 40% 6 19.11.2027 -
Renzo Tesuri Atlético Tucumán Aktiv 121 / 136 40% 1 16.11.2027 -
Tomás Conechny Racing Club Aktiv 121 / 140 40% 1 16.11.2027 -
Cristopher Fiermarin Defensa y Justicia Aktiv 128 / 114 40% 4 10.11.2027 -
José Devecchi San Lorenzo Aktiv 118 / 122 40% 3 09.11.2027 -
Franco Petroli Estudiantes Aktiv 119 / 117 40% 3 09.11.2027 -
Matías Zaracho Racing Club Aktiv 120 / 137 40% 1 06.11.2027 -
Tomáš Bobček Frosinone Aktiv 122 / 126 40% 4 30.10.2027 -
Guillermo Enrique Huracán Aktiv 117 / 108 40% 2 27.10.2027 -
Alexander Díaz Deportivo Riestra Aktiv 127 / 129 40% 1 27.10.2027 -
Stefano Moreyra Independiente Rivadavia Aktiv 125 / 110 40% 1 27.10.2027 -
Facundo Farías Estudiantes Aktiv 121 / 121 40% 5 24.10.2027 -
Matías Tagliamonte Racing Club Aktiv 111 / 113 40% 2 23.10.2027 -
Jonathan Klinsmann Cesena Aktiv 134 / 135 40% 2 23.10.2027 -
Lucas Chaves Argentinos Juniors Aktiv 129 / 126 40% 1 23.10.2027 -
Emmanuel Gómez Riga Alvarado Aktiv 128 / 111 40% 2 17.10.2027 -
Wladimiro Falcone Lecce Aktiv 148 / 143 40% 1 17.10.2027 -
Iván Villar Villarreal Aktiv 130 / 136 40% 1 16.10.2027 -
Alan Sosa Tigre Aktiv 119 / 123 40% 1 16.10.2027 -
Mateusz Bogusz Houston Dynamo Aktiv 117 / 144 40% 2 08.10.2027 -
Maksim Samorodov Akhmat Grozny Aktiv 117 / 111 40% 3 06.10.2027 -
Luciano Herrera Newell's Old Boys Aktiv 118 / 138 40% 1 04.10.2027 -
Yorbe Vertessen Red Bull Salzburg Aktiv 131 / 129 40% 9 02.10.2027 -
Daniel Sappa San Miguel Aktiv 119 / 112 40% 1 02.10.2027 -
Gianmarco Vannucchi Benevento Aktiv 120 / 127 40% 1 28.09.2027 -
Ignacio Chicco Aldosivi Aktiv 112 / 132 40% 1 28.09.2027 -
Andrea Fulignati Cremonese Aktiv 133 / 124 40% 1 28.09.2027 -
Afimico Pululu Rosario Central Aktiv 119 / 115 40% 3 25.09.2027 -
Adam Buksa Udinese Aktiv 123 / 120 40% 4 25.09.2027 -
Hojiakbar Alijonov Pakhtakor Aktiv 127 / 132 40% 1 23.09.2027 -
Matías Canedo Rampla Juniors Aktiv 89 / 86 40% 2 21.09.2027 -
Zahir Ibarra Defensa y Justicia Aktiv 92 / 105 40% 1 21.09.2027 -
Ángel Aguayo Sol de America Aktiv 93 / 113 40% 1 21.09.2027 -
Marek Rodák Malmo FF Aktiv 137 / 129 40% 1 20.09.2027 -
Lucas Souto Defensa y Justicia Aktiv 128 / 135 40% 1 12.09.2027 -
Gustavo Del Prete San Lorenzo Aktiv 120 / 119 40% 1 12.09.2027 -
Maxim Borisko CSKA Moscow Aktiv 124 / 122 40% 2 07.09.2027 -
Juan Bisanz Huracán Aktiv 136 / 131 40% 1 07.09.2027 -
Antony Alonso Deportivo Riestra Aktiv 118 / 121 40% 1 07.09.2027 -
Diego Vargas San Marcos de Arica Aktiv 82 / 111 40% 1 05.09.2027 -
Alexis Ríos Leones Aktiv 94 / 77 40% 1 05.09.2027 -
Ulises Giménez River Plate Aktiv 108 / 130 40% 2 30.08.2027 -
Ľubomír Tupta Neftchi Aktiv 122 / 115 69% 1 30.08.2027 Befürworten
Elkin Rivero Atletico Nacional Aktiv 95 / 123 40% 1 30.08.2027 -
Samuel Posada Leones Aktiv 77 / 87 40% 1 30.08.2027 -
Lucas Camejo River Plate Aktiv 79 / 90 40% 2 29.08.2027 -
Julián Bazán Philadelphia Union Aktiv 101 / 128 40% 1 29.08.2027 -
Lucas Silva River Plate Aktiv 95 / 110 40% 2 28.08.2027 -
Daniel Gomez Valledupar Aktiv 90 / 92 40% 2 28.08.2027 -
Keimer Sandoval Deportivo Cali Aktiv 111 / 119 40% 1 28.08.2027 -
Teo Rodríguez Pagano River Plate Aktiv 111 / 134 40% 1 26.08.2027 -
Maximiliano Salas River Plate Aktiv 119 / 128 40% 1 22.08.2027 -
Emiliano Bértoli Patronato Aktiv 99 / 93 40% 2 21.08.2027 -
Ollie Watkins Estudiantes Aktiv 144 / 137 40% 4 21.08.2027 -
Jofrank Istifanus Nasarawa United Aktiv 94 / 98 40% 2 21.08.2027 -
Sebastian Aceves Atletico Goianiense Aktiv 88 / 88 40% 1 18.08.2027 -
Erik Botheim Talleres Aktiv 118 / 113 40% 4 16.08.2027 -
Dániel Gazdag Wolverhampton Aktiv 124 / 135 40% 10 16.08.2027 -
Uriel Antuna Zaragoza Aktiv 132 / 135 40% 1 16.08.2027 -
Alejandro Almaraz Nueva Chicago Aktiv 112 / 129 40% 1 15.08.2027 -
José Correa Deportivo Tachira Aktiv 95 / 98 40% 1 15.08.2027 -
Sebastián Driussi River Plate Aktiv 118 / 116 40% 10 12.08.2027 -
Adrián Spörle Belgrano Aktiv 118 / 123 40% 1 09.08.2027 -
Gonzalo Ríos Independiente Rivadavia Aktiv 114 / 107 40% 1 06.08.2027 -
Francisco González Metilli Belgrano Aktiv 135 / 135 40% 1 06.08.2027 -
Tomás Adoryan Banfield Aktiv 110 / 132 40% 1 04.08.2027 -
Juan Infante Atlético Tucumán Aktiv 124 / 118 40% 1 04.08.2027 -
Iñaki Larthirigoyen San Telmo Aktiv 129 / 115 40% 1 03.08.2027 -
Facundo Altamira Godoy Cruz Aktiv 117 / 130 40% 1 03.08.2027 -
Mateo Bajamich Atlético Tucumán Aktiv 114 / 119 40% 1 31.07.2027 -
Bruno Barticciotto Talleres Aktiv 119 / 141 40% 5 28.07.2027 -
Hugo Al Wasl Aktiv 125 / 122 40% 1 26.07.2027 -
Alejo Dramisino Atlanta Aktiv 119 / 122 40% 1 26.07.2027 -
Milton Giménez Boca Juniors Aktiv 118 / 128 40% 2 24.07.2027 -
Charlie Gray Grimsby Town Aktiv 101 / 90 40% 4 21.07.2027 -
Rayhan Momade Sporting CP Aktiv 99 / 106 40% 2 21.07.2027 -
Leandro Martins Benfica Aktiv 96 / 92 40% 5 20.07.2027 -
Kai Andrews Coventry City Aktiv 113 / 116 40% 2 20.07.2027 -
Álvaro Navoni Tigre Aktiv 91 / 92 40% 1 20.07.2027 -
Álvaro Fernández Mallorca Aktiv 136 / 141 40% 1 18.07.2027 -
Ilja Pomazun Spartak Moscow Aktiv 131 / 120 40% 1 16.07.2027 -
Evgeny Staver Rubin Aktiv 126 / 109 40% 8 13.07.2027 -
Lucas Mbamba Westerlo Aktiv 92 / 93 40% 5 13.07.2027 -
Darryl Bakola Padova Aktiv 107 / 132 40% 4 13.07.2027 -
Miguel Vargas Universitario Aktiv 107 / 114 40% 1 13.07.2027 -
Christián Herc Gabala Aktiv 119 / 107 69% 1 12.07.2027 Befürworten
Santiago Longo Belgrano Aktiv 134 / 129 40% 2 11.07.2027 -
Miguel Loureiro Deportivo La Coruña Aktiv 127 / 118 40% 1 11.07.2027 -
Alexandr Koryakin Krasnodar Aktiv 122 / 105 40% 2 09.07.2027 -
Nicolás Sumavil Platense Aktiv 110 / 103 40% 3 09.07.2027 -
Luis Chávez Dinamo Moscow Aktiv 136 / 120 40% 3 04.07.2027 -
Milson Al Jazira Aktiv 129 / 126 40% 1 04.07.2027 -
Santiago Ascacíbar Boca Juniors Aktiv 132 / 135 40% 1 04.07.2027 -
Darnell Furlong Ipswich Town Aktiv 122 / 120 40% 2 03.07.2027 -
Vitinha Genoa Aktiv 138 / 136 40% 1 02.07.2027 -
Valentin Rosier Osasuna Aktiv 126 / 122 40% 1 02.07.2027 -
Emiliano González Almagro Aktiv 112 / 112 40% 1 01.07.2027 -
Matías Galarza Central Córdoba SdE Aktiv 135 / 131 40% 1 01.07.2027 -
Igor Leschuk Dinamo Moscow Aktiv 125 / 131 40% 1 27.06.2027 -
Tomás Durso Atlético Tucumán Aktiv 134 / 137 40% 1 27.06.2027 -
Weibmar Asprilla Independiente Medellin Aktiv 114 / 110 40% 1 26.06.2027 -
Jakub Kałuziński Basaksehir Aktiv 120 / 121 40% 1 26.06.2027 -
Santiago González Tigre Aktiv 128 / 139 40% 1 26.06.2027 -
Alex Luna Instituto Aktiv 128 / 130 40% 1 25.06.2027 -
Eric Meza Estudiantes Aktiv 119 / 137 40% 1 25.06.2027 -
Douglas Augusto Krasnodar Aktiv 140 / 134 40% 2 22.06.2027 -
Nicolás Tripichio San Lorenzo Aktiv 133 / 125 40% 1 21.06.2027 -
Daniil Fomin Dinamo Moscow Aktiv 132 / 122 40% 1 21.06.2027 -
Anton Miranchuk Dinamo Moscow Aktiv 116 / 140 40% 1 19.06.2027 -
Malcom Braida Boca Juniors Aktiv 125 / 137 40% 1 19.06.2027 -
Kevin Pina Krasnodar Aktiv 132 / 141 40% 1 19.06.2027 -
Roberto Ramírez Godoy Cruz Aktiv 128 / 106 40% 1 19.06.2027 -
Serginho Al Wasl Aktiv 140 / 134 40% 1 16.06.2027 -
Bədavi Hüseynov Gabala Aktiv 104 / 97 69% 1 14.06.2027 Befürworten
Eduardo Felicíssimo Sporting CP Aktiv 115 / 122 40% 3 13.06.2027 -
Chibueze Oputa Rangers International Aktiv 76 / 86 40% 1 13.06.2027 -
Michal Rosiak Twente Aktiv 91 / 92 40% 2 10.06.2027 -
Daniel Padilla Zamora Aktiv 100 / 90 40% 1 10.06.2027 -
Martim Cunha Porto Aktiv 106 / 102 40% 4 09.06.2027 -
Thijs Kraaijeveld Feyenoord Aktiv 108 / 127 40% 2 09.06.2027 -
Latrell Aken Groningen Aktiv 105 / 121 40% 2 07.06.2027 -
Zaïd BafdilI Sporting CP Aktiv 92 / 97 40% 5 05.06.2027 -
Falaye Sacko Neftchi Aktiv 118 / 122 69% 1 02.06.2027 Befürworten
Issa Djibrilla Zira Aktiv 107 / 121 69% 1 01.06.2027 Befürworten
Timur Kraikov Sokol Aktiv 99 / 82 40% 2 28.05.2027 -
Arthur Augusto Semen Padang Aktiv 106 / 93 40% 1 28.05.2027 -
Tenton Yenne Baltika Aktiv 117 / 98 40% 1 28.05.2027 -
Georgy Melkadze Akhmat Grozny Aktiv 105 / 119 40% 4 25.05.2027 -
Arthur Gomes Dinamo Moscow Aktiv 130 / 126 40% 2 24.05.2027 -
Martin Sekulić Ural Aktiv 115 / 124 40% 1 24.05.2027 -
Eddy Ozobic Inter Verloren 104 / 120 40% 2 22.05.2027 -
Jeimes Sumgayit Aktiv 99 / 98 40% 5 21.05.2027 -
Santiago Silva CFR Cluj Aktiv 127 / 110 40% 10 19.05.2027 -
Brian Opondo Kakamega Homeboyz Aktiv 97 / 77 40% 1 19.05.2027 -
Nicolás Azambuja Cádiz Aktiv 113 / 123 40% 1 19.05.2027 -
François Kamano Sochi Aktiv 114 / 120 40% 2 18.05.2027 -
Amaury Morales Pumas UNAM Aktiv 103 / 104 40% 1 18.05.2027 -
Timur Akmurzin Dinamo Bryansk Aktiv 96 / 91 40% 6 15.05.2027 -
Ivan Sergeev Dinamo Moscow Aktiv 132 / 138 40% 1 15.05.2027 -
Lucas Carrizo Plaza Colonia Aktiv 101 / 112 40% 1 15.05.2027 -
Vyacheslav Grulev Nizhniy Novgorod Aktiv 109 / 112 40% 1 12.05.2027 -
Bogdan Ovsyannikov Orenburg Aktiv 104 / 107 40% 12 11.05.2027 -
Felipe San Juan Gimnasia y Esgrima Aktiv 110 / 104 40% 1 10.05.2027 -
Joaquín Bigo Tristán Suárez Aktiv 109 / 111 40% 10 08.05.2027 -
Egoitz Arana Real Sociedad Aktiv 114 / 112 40% 1 07.05.2027 -
Rostislav Soldatenko Torpedo Moscow Aktiv 93 / 96 40% 10 06.05.2027 -
Franco Rivasseau Patronato Aktiv 109 / 113 40% 1 06.05.2027 -
Maycon Cleiton Zira Aktiv 115 / 114 40% 14 03.05.2027 -
Agustín Lastra Estudiantes Aktiv 99 / 94 40% 2 02.05.2027 -
Jayden Spier Willem II Aktiv 101 / 111 40% 2 02.05.2027 -
Ilja Tuseev Chelyabinsk Aktiv 102 / 107 40% 10 01.05.2027 -
Alejo Medina Agropecuario Argentino Aktiv 107 / 90 40% 2 28.04.2027 -
Ruslan Ozobic Inter Aktiv 104 / 107 40% 1 28.04.2027 -
Nikita Yanovich Tyumen Aktiv 101 / 85 40% 2 26.04.2027 -
Alexandr Degtev Orenburg Aktiv 117 / 99 40% 2 25.04.2027 -
Nikita Kokarev Zenit Aktiv 124 / 107 40% 4 24.04.2027 -
Juan Pablo Noce All Boys Aktiv 97 / 101 40% 2 24.04.2027 -
Thomas Amang Rubin Aktiv 108 / 100 40% 2 21.04.2027 -
Esteban da Silva Racing Aktiv 103 / 107 40% 1 21.04.2027 -
Finley McAllister Grimsby Town Aktiv 84 / 87 40% 3 19.04.2027 -
João Capucho Benfica Aktiv 94 / 99 40% 2 19.04.2027 -
Lorenzo Cordaro Pergolettese Aktiv 105 / 97 40% 2 14.04.2027 -
Lucas Machado Defensor Sporting Aktiv 92 / 88 40% 1 08.04.2027 -
Daniel Kelly Oxford United Aktiv 109 / 124 40% 4 01.04.2027 -
Larson Palmeiras Aktiv 98 / 95 40% 3 01.04.2027 -
Lucas Ruiz Ferro Carril Oeste Aktiv 98 / 124 40% 1 30.03.2027 -
Matías Gómez Granada Aktiv 112 / 125 40% 2 28.03.2027 -
Aldo Pérez Guarani Aktiv 115 / 112 40% 4 26.03.2027 -
Thyago Ayala Newell's Old Boys Aktiv 95 / 97 40% 3 26.03.2027 -
Emanuel Sittaro Instituto Aktiv 100 / 117 40% 1 19.03.2027 -
Ólafur Kristófer Helgason Fylkir Aktiv 100 / 103 40% 2 18.03.2027 -
Zane Albarus Cambridge United Aktiv 95 / 90 40% 3 17.03.2027 -
Gonçalo Oliveira Benfica Aktiv 111 / 107 40% 2 16.03.2027 -
Karim Coulibaly RC Strasbourg Aktiv 127 / 127 40% 2 09.03.2027 -
Daniel Costa Sporting CP Aktiv 83 / 95 40% 1 04.03.2027 -
Daniil Frolkin Fakel Aktiv 108 / 120 40% 5 27.02.2027 -
Novak Mićović LA Galaxy Aktiv 106 / 111 40% 1 27.02.2027 -
Neil Volken Zurich Aktiv 90 / 100 40% 1 27.02.2027 -
Maxim Belov Dinamo Brest Aktiv 100 / 98 40% 5 21.02.2027 -
Ismail Al Suwaidi Al Fujairah Aktiv 123 / 137 40% 1 21.02.2027 -
Makar Vysochenko Spartak Moscow Aktiv 91 / 93 40% 1 03.02.2027 -
Freddy Murillo Valencia Aktiv 116 / 127 40% 1 03.02.2027 -
Michael Creek Nashville SC Aktiv 87 / 106 40% 1 01.02.2027 -
Krešimir Radoš HNK Gorica Aktiv 101 / 115 40% 1 31.01.2027 -
Richard Noël AS Nancy Aktiv 88 / 103 40% 1 30.01.2027 -
Tiago Freitas Benfica Aktiv 107 / 121 40% 2 28.01.2027 -
Vugar Garayev Inter Aktiv 95 / 107 40% 5 20.01.2027 -
Richard Medvedev Khazar Aktiv 87 / 95 40% 4 10.01.2027 -
Oleh Bilyk Epicentr Aktiv 107 / 104 40% 6 04.01.2027 -
Ruan Renato Zira Aktiv 112 / 117 65% 1 03.01.2027 Befürworten
Rodrigo Frutos Olimpia Aktiv 87 / 80 40% 2 02.01.2027 -
Juan Sebastián Serrano FC Nordsjaelland Aktiv 85 / 97 40% 4 31.12.2026 -
Efraín Ustariz Botev Plovdiv Aktiv 96 / 94 40% 1 31.12.2026 -
Islam Imamov SKA Khabarovsk Aktiv 82 / 81 40% 4 28.12.2026 -
Leonardo Marson Gubbio Aktiv 104 / 102 40% 2 27.12.2026 -
Franco Herrera Viitorul Aktiv 93 / 118 40% 1 22.12.2026 -
Danila Sokol BATE Aktiv 91 / 86 40% 1 20.12.2026 -
Cheveyo Tsawa Club Brugge Aktiv 118 / 126 40% 1 13.12.2026 -
Ivan Shilenok Zenit Aktiv 97 / 91 40% 1 11.12.2026 -
Anton Andersson Falkenberg Aktiv 87 / 118 40% 3 27.11.2026 -
David Sangaré Ryazan Aktiv 84 / 82 40% 2 24.11.2026 -
Guilherme Pires Sporting CP Aktiv 85 / 98 40% 1 22.11.2026 -
Hamza Alaa Al Ahly Aktiv 110 / 108 40% 1 19.11.2026 -
Randall Rodríguez River Plate Aktiv 100 / 116 40% 2 17.11.2026 -
Reece Braithwaite Inter Aktiv 98 / 118 40% 1 03.11.2026 -
Frankie Westfield Philadelphia Union Aktiv 111 / 98 40% 1 03.11.2026 -
David Agudelo Depor Aktiv 107 / 101 40% 3 26.10.2026 -
Valente Pierani Estudiantes Aktiv 114 / 110 40% 1 11.10.2026 -
Ignacio Ovando Rosario Central Aktiv 115 / 121 40% 1 11.10.2026 -
Matija Mitrović Vitoria Guimaraes Aktiv 113 / 111 40% 1 11.10.2026 -
Joel Godoy Sarmiento Aktiv 114 / 124 40% 1 09.10.2026 -
Felipe Obradovich Ferro Carril Oeste Aktiv 114 / 116 40% 1 09.10.2026 -
Adrian Gill Atlanta United FC Aktiv 86 / 93 40% 1 09.10.2026 -
Joaquín Canadell Quilmes Aktiv 87 / 113 40% 1 01.10.2026 -
Isak Pettersson IF Elfsborg Aktiv 119 / 121 40% 1 27.09.2026 -
Mathías Bernatene Liverpool Montevideo Aktiv 110 / 110 40% 1 27.09.2026 -
Bingourou Kamara Olympique de Marseille Aktiv 117 / 120 40% 1 21.09.2026 -
Morrison Agyemang Charlotte Football Club Aktiv 101 / 110 40% 2 08.09.2026 -
Rachid Moumini Sumgayit Aktiv 106 / 109 40% 1 08.09.2026 -
Alfie Cresswell Leeds United Aktiv 100 / 113 40% 1 02.09.2026 -
Marvin Kaleta Rotherham United Aktiv 104 / 117 40% 2 01.09.2026 -
Jofre Torrents Ajax Aktiv 110 / 122 40% 1 01.09.2026 -
Santiago Espíndola River Plate Aktiv 109 / 96 40% 2 28.08.2026 -
Rhys Chadwick Leyton Orient Aktiv 100 / 104 40% 1 28.08.2026 -
Thiago Villalba Vélez Aktiv 93 / 116 40% 1 26.08.2026 -
Law McCabe Middlesbrough Aktiv 102 / 108 40% 1 24.08.2026 -
Ramiro Buratti River Plate Aktiv 91 / 104 40% 1 19.08.2026 -
Josh Laqeretabua Charlton Athletic Aktiv 94 / 102 40% 1 17.08.2026 -
Roi Kehat Sumgayit Aktiv 116 / 108 65% 1 10.08.2026 Befürworten
Santiago Silveira Argentinos Juniors Aktiv 77 / 108 40% 1 10.08.2026 -
Gonzalo Escudero Racing Club Aktiv 116 / 126 40% 1 10.08.2026 -
Edwar López Deportes Tolima Aktiv 105 / 107 40% 1 01.08.2026 -